Location: Unspecified
(0.0000°N, 0.0000°E)
Time: 18:37:36
(UTC+00:00)

SAR-Lupe-1 - Visible Passes

Search period start: 22 June 2021 00:00
Search period end: 02 July 2021 00:00
Orbit: 482 x 483 km, 98.2° (Epoch: 30 March)

Date Brightness Start Highest point End Pass type
(mag) Time Alt. Az. Time Alt. Az. Time Alt. Az.
22 Jun 3.9 19:10:33 10° NNE 19:14:07 80° E 19:17:41 10° S visible
23 Jun 4.9 18:46:03 10° NE 18:49:07 28° ESE 18:52:12 10° SSE visible
24 Jun 6.9 19:54:39 10° NNW 19:57:10 18° WNW 19:59:41 10° WSW visible
25 Jun 5.0 19:28:43 10° N 19:32:10 49° WNW 19:35:37 10° SSW visible
26 Jun 4.1 19:03:40 10° NNE 19:07:09 55° ESE 19:10:39 10° S visible
27 Jun 5.4 18:39:29 10° NE 18:42:09 20° ESE 18:44:50 10° SSE visible
28 Jun 6.3 19:47:14 10° NNW 19:50:12 25° WNW 19:53:11 10° SW visible
29 Jun 4.2 19:21:39 10° N 19:25:10 72° WNW 19:28:45 10° SSW visible
30 Jun 4.5 18:56:51 10° NNE 19:00:10 38° ESE 19:03:30 10° S visible
01 Jul 5.7 18:33:07 10° ENE 18:35:10 15° ESE 18:37:12 10° SE visible
01 Jul 7.3 20:06:21 10° NW 20:08:12 14° WNW 20:10:04 10° WSW visible
